Meteo Giornale » Osservazioni meteo Martinica » Le Lamentin
ore: 04:00 - Osservazioni Meteo Le Lamentin
Lat. 14° 36' N Lon. 61° 0' W Alt. 5 metri s.l.m.
27 °C
Molto Nuvoloso
Temp. 24 Ore
27 °C
32 °C
Est/Nord-Est
11.1 Km/h
Dew point 24 °C
Umidità 83 %
Visibilità 10 Km
Il sole sorge alle ore 05:51
Il sole tramonta alle ore 18:15
| Data e Ora | Cielo e Fenomeni | T °C | DP °C | Um. % | Pres. hPa | Vis. km | Vento km/h | |
|---|---|---|---|---|---|---|---|---|
| Oggi h: 04:00 | Molto Nuvoloso | 27 | 24 | 83 | 1013 | 10 | E/NE 11.1 | |
| Oggi h: 03:30 | Poco Nuvoloso | 27 | 24 | 83 | 1013 | 10 | E/NE 11.1 | |
| Oggi h: 03:00 | Poco Nuvoloso | 27 | 24 | 83 | 1013 | 10 | E/NE 11.1 | |
| Oggi h: 02:30 | Sereno | 27 | 24 | 83 | 1014 | 10 | E/NE 13 | |
| Oggi h: 02:00 | Poco Nuvoloso | 27 | 24 | 83 | 1014 | 10 | E 9.3 | |
| Oggi h: 01:30 | Poco Nuvoloso | 27 | 24 | 83 | 1014 | 10 | E 9.3 | |
| Oggi h: 01:00 | Sereno | 27 | 24 | 83 | 1015 | 10 | E 14.8 | |
| Oggi h: 00:30 | Nuvoloso | 28 | 24 | 78 | 1015 | 10 | E 16.7 | |
| Oggi h: 00:00 | Molto Nuvoloso | 28 | 24 | 78 | 1015 | 10 | E 13 | |
| Ieri h: 23:30 | Coperto | 28 | 24 | 78 | 1015 | 10 | E/NE 16.7 | |
| Ieri h: 23:00 | Coperto | 28 | 24 | 78 | 1015 | 10 | E/NE 14.8 | |
| Ieri h: 22:30 | Coperto | 28 | 24 | 78 | 1016 | 10 | E/NE 14.8 | |
| Ieri h: 22:00 | Coperto | 28 | 25 | 83 | 1015 | 10 | E/NE 14.8 | |
| Ieri h: 21:30 | Coperto | 28 | 25 | 83 | 1015 | 10 | E/NE 16.7 | |
| Ieri h: 21:00 | Coperto | 28 | 25 | 83 | 1015 | 10 | E/NE 16.7 | |
| Ieri h: 20:30 | Coperto | 29 | 25 | 79 | 1015 | 10 | E/NE 16.7 | |
| Ieri h: 20:00 | Coperto | 28 | 25 | 83 | 1015 | 10 | E/NE 16.7 | |
| Ieri h: 19:30 | Coperto | 29 | 25 | 79 | 1014 | 10 | E/NE 16.7 | |
| Ieri h: 19:00 | Coperto | 29 | 24 | 74 | 1014 | 10 | E/NE 14.8 | |
| Ieri h: 18:30 | Coperto | 29 | 24 | 74 | 1014 | 10 | E/NE 16.7 | |
| Ieri h: 18:00 | Coperto | 29 | 24 | 74 | 1013 | 10 | E/NE 20.3 | |
| Ieri h: 17:30 | Coperto | 30 | 25 | 74 | 1013 | 10 | E/NE 24 | |
| Ieri h: 17:00 | Coperto | 30 | 25 | 74 | 1013 | 10 | E/NE 20.3 | |
| Ieri h: 16:30 | Molto Nuvoloso | 30 | 25 | 74 | 1013 | 10 | E 25.9 | |
| Ieri h: 16:00 | Coperto | 31 | 25 | 70 | 1013 | 10 | E/NE 24 | |
| Ieri h: 15:30 | Molto Nuvoloso | 31 | 25 | 70 | 1013 | 10 | E 22.2 | |
| Ieri h: 15:00 | Molto Nuvoloso | 31 | 25 | 70 | 1014 | 10 | E 25.9 | |
| Ieri h: 14:30 | Poco Nuvoloso | 32 | 24 | 62 | 1014 | 10 | E/NE 27.8 | |
| Ieri h: 14:00 | Poco Nuvoloso | 32 | 24 | 62 | 1014 | 10 | E 29.6 | |
| Ieri h: 13:30 | Nuvoloso | 32 | 25 | 66 | 1014 | 10 | E 29.6 | |
| Ieri h: 13:00 | Molto Nuvoloso | 32 | 25 | 66 | 1015 | 10 | E 29.6 | |
| Ieri h: 12:30 | Molto Nuvoloso | 32 | 25 | 66 | 1015 | 10 | E 27.8 | |
| Ieri h: 12:00 | Nuvoloso | 32 | 25 | 66 | 1015 | 10 | E 31.5 | |
| Ieri h: 11:30 | Molto Nuvoloso | 31 | 26 | 74 | 1015 | 10 | E 29.6 | |
| Ieri h: 11:00 | Molto Nuvoloso | 31 | 25 | 70 | 1015 | 10 | E 31.5 | |
| Ieri h: 10:30 | Molto Nuvoloso | 31 | 25 | 70 | 1015 | 10 | E/NE 25.9 | |
| Ieri h: 10:00 | Molto Nuvoloso | 31 | 25 | 70 | 1015 | 10 | E/NE 27.8 | |
| Ieri h: 09:30 | Nuvoloso | 31 | 25 | 70 | 1015 | 10 | E 31.5 | |
| Ieri h: 09:00 | Molto Nuvoloso | 30 | 25 | 74 | 1015 | 10 | E 29.6 | |
| Ieri h: 08:30 | Coperto | 30 | 26 | 79 | 1015 | 10 | E 25.9 | |
| Ieri h: 08:00 | Molto Nuvoloso | 29 | 25 | 79 | 1014 | 10 | E 25.9 | |
| Ieri h: 07:30 | Nuvoloso | 29 | 25 | 79 | 1014 | 10 | E/NE 24 | |
| Ieri h: 07:00 | Molto Nuvoloso | 28 | 25 | 83 | 1014 | 10 | E 16.7 | |
| Ieri h: 06:30 | Molto Nuvoloso | 28 | 25 | 83 | 1014 | 10 | E/NE 11.1 | |
| Ieri h: 06:00 | Molto Nuvoloso | 27 | 25 | 88 | 1014 | 10 | E/NE 13 | |
| Ieri h: 05:30 | Molto Nuvoloso | 28 | 25 | 83 | 1013 | 10 | E 13 | |
| Ieri h: 05:00 | Coperto | 27 | 26 | 94 | 1013 | 10 | E/NE 13 | |



